Home > Time Zones > World Clock > Weather > Norway > Moss > Past weeks

Flag for Norway Weather past 2 weeks in Moss, Norway

Now
16 °F

Passing clouds.


Feels Like: 7 °F
Forecast: 12 / 19 °F
Wind: 6 mph from North

Location: Rygge

Current Time: Dec 27, 2014 at 2:08:58 AM

Latest Report: Dec 27, 2014 at 1:20 AM


Visibility: N/A

Pressure: 30.01 "Hg

Humidity: 93%

Dew point: 14 °F

Location of MossLocation

Historic Weather in Moss — Graph

°F

Moss temperature yesterday

Maximum temperature yesterday: 23 °F (at 6:50 PM)
Minimum temperature yesterday: 5 °F (at 2:20 AM)
Average temperature yesterday: 12 °F

Past Weeks' High & Low Weather Summary

 TemperatureHumidityPressure
High45 °F (Dec 14, 6:20 PM)100% (Dec 12, 6:50 PM)30.24 "Hg (Dec 12, 6:50 PM)
Low5 °F (Dec 26, 2:20 AM)56% (Dec 20, 9:20 PM)29.00 "Hg (Dec 12, 5:20 PM)
Average32 °F85%29.44 "Hg
* Reported Dec 12 12:20 AM — Dec 27 12:50 AM, Moss, Weather by CustomWeather, © 2014

Note: Actual official high and low records may vary slightly from our data, if they occured in-between our weather recording intervals... More about our weather records

Advertising

Moss weather history for previous 24 hours

 ConditionsComfort  
Time TempWeatherWind HumidityBarometerVisibility
12:50 AM
Dec 27
16 °FLight snow. Passing clouds.7 mph93%30.01 "HgN/A
12:20 AM16 °FPassing clouds.6 mph93%30.01 "HgN/A
11:50 PM
Dec 26
14 °FSnow. Passing clouds.5 mph92%30.01 "Hg4 mi
11:20 PM14 °FSnow. Passing clouds.6 mph92%29.98 "Hg6 mi
10:50 PM16 °FSnow. Passing clouds.5 mph93%29.98 "Hg6 mi
10:20 PM16 °FPassing clouds.7 mph93%29.98 "HgN/A
9:50 PM16 °FPassing clouds.3 mph93%29.98 "HgN/A
9:20 PM16 °FClear.6 mph93%29.98 "Hg10 mi
8:50 PM16 °FClear.5 mph93%29.98 "Hg10 mi
8:20 PM18 °FClear.3 mph93%29.98 "Hg10 mi
7:50 PM19 °FClear.5 mph93%29.98 "Hg10 mi
7:20 PM21 °FClear.1 mph100%29.98 "Hg10 mi
6:50 PM23 °FLight snow. Passing clouds.3 mph93%29.98 "Hg4 mi
6:20 PM21 °FLight snow. Ice fog.2 mph93%30.01 "Hg1 mi
5:50 PM19 °FLight snow. Ice fog.2 mph100%30.01 "HgN/A
5:20 PM19 °FLight snow. Ice fog.2 mph100%30.04 "Hg2 mi
4:50 PM19 °FPassing clouds.3 mph93%30.04 "HgN/A
4:20 PM19 °FClear.1 mph93%30.07 "Hg10 mi
3:50 PM19 °FPassing clouds.2 mph93%30.07 "HgN/A
3:20 PM18 °FPassing clouds.2 mph100%30.07 "Hg4 mi
2:50 PM19 °FScattered clouds.1 mph93%30.07 "Hg3 mi
2:20 PM18 °FIce fog.3 mph93%30.07 "Hg1 mi
1:50 PM18 °FPartly sunny.2 mph93%30.09 "Hg1 mi
1:20 PM16 °FPassing clouds.3 mph93%30.09 "Hg1 mi
12:50 PM16 °FPassing clouds.1 mph86%30.12 "HgN/A
12:20 PM16 °FPassing clouds.2 mph86%30.12 "HgN/A
11:50 AM14 °FSunny.1 mph92%30.15 "Hg10 mi
11:20 AM14 °FSunny.1 mph92%30.15 "Hg10 mi
10:50 AM10 °FSunny.2 mph85%30.15 "Hg10 mi
10:20 AM9 °FLight fog.2 mph85%30.15 "HgN/A
9:50 AM7 °FSunny.No wind85%30.15 "Hg10 mi
9:20 AM7 °FLight fog.1 mph85%30.15 "Hg1 mi
8:50 AM7 °FClear.1 mph92%30.15 "Hg10 mi
8:20 AM5 °FFrigid.No wind92%30.15 "HgN/A
7:50 AM5 °FFrigid.1 mph92%30.18 "HgN/A
7:20 AM5 °FFrigid.No wind85%30.18 "HgN/A
6:50 AM7 °FFrigid.1 mph85%30.18 "HgN/A
6:20 AM5 °FFrigid.1 mph92%30.18 "HgN/A
5:50 AM5 °FFrigid.1 mph85%30.18 "HgN/A
5:20 AM5 °FFrigid.No wind85%30.18 "HgN/A
4:50 AM7 °FFrigid.1 mph85%30.21 "HgN/A
4:20 AM5 °FFrigid.No wind92%30.21 "HgN/A
3:50 AM7 °FIce fog.1 mph85%30.21 "HgN/A
3:20 AM5 °FIce fog.2 mph92%30.21 "Hg0 mi
2:50 AM5 °FFrigid.1 mph92%30.21 "Hg4 mi
2:20 AM5 °FFrigid.1 mph92%30.21 "HgN/A
Weather by CustomWeather, © 2014

See weather overviewHow to use our weather pages